ATLAS CENTAUR 2 1 00694U 63047A 25347.99726953 .00003299 00000+0 39546-3 0 9992 2 00694 30.3544 314.4337 0548929 45.2584 319.1382 14.11768062119509 THOR AGENA D R/B 1 00733U 64002A 25347.97836140 .00000353 00000+0 14291-3 0 9994 2 00733 99.1218 351.6640 0033409 146.6769 213.6526 14.33960580226013 SL-3 R/B 1 00877U 64053B 25347.94116280 .00000413 00000+0 10477-3 0 9991 2 00877 65.0762 222.6120 0073959 319.9647 39.6015 14.61277241254265 SL-8 R/B 1 02802U 67045B 25347.90006440 .00000696 00000+0 20000-3 0 9993 2 02802 74.0097 148.2960 0064237 177.3373 182.8141 14.45538696 76621 SL-8 R/B 1 03230U 68040B 25347.90542708 .00003868 00000+0 29202-3 0 9994 2 03230 74.0302 128.8799 0025530 330.3246 29.6492 15.02537797 77121 OAO 2 1 03597U 68110A 25347.54676998 .00000427 00000+0 12031-3 0 9997 2 03597 34.9946 26.1543 0005943 230.4359 129.5807 14.47245116 6619 ISIS 1 1 03669U 69009A 25347.94491322 .00000305 00000+0 22176-3 0 9991 2 03669 88.4485 164.6645 1706879 262.2609 78.2212 11.30355101338848 SERT 2 1 04327U 70009A 25347.83663862 .00000053 00000+0 12904-3 0 9991 2 04327 99.2651 290.6760 0005381 31.9119 23.0933 13.58717853768235 SL-3 R/B 1 05118U 71028B 25347.96302417 .00033269 00000+0 49899-3 0 9990 2 05118 81.2372 157.3540 0019271 236.2412 123.7002 15.54534966975324 ASTEX 1 1 05560U 71089A 25347.94660707 .00000791 00000+0 20167-3 0 9996 2 05560 92.7140 124.0095 0016261 22.1167 338.0737 14.50644411849874 SL-8 R/B 1 05730U 71119B 25348.01072496 .00014585 00000+0 75977-3 0 9995 2 05730 73.8888 335.6244 0559199 319.6351 36.4523 14.35767574643186 OAO 3 (COPERNICUS) 1 06153U 72065A 25347.92820066 .00000553 00000+0 11804-3 0 9998 2 06153 35.0063 65.8955 0006568 184.1837 342.7454 14.59907740833659 ATLAS CENTAUR R/B 1 06155U 72065B 25347.67342417 .00001971 00000+0 27326-3 0 9992 2 06155 35.0013 89.7274 0033828 5.4501 354.6563 14.77413365828536 SL-8 R/B 1 08459U 75112B 25347.94355909 .00000377 00000+0 13287-3 0 9997 2 08459 74.0590 176.6439 0016615 287.8618 72.0724 14.38145814619544 SL-3 R/B 1 10114U 77057B 25347.98824889 .00013687 00000+0 31243-3 0 9990 2 10114 97.5682 151.3645 0006557 227.7435 132.3257 15.42983798655100 SEASAT 1 1 10967U 78064A 25347.85829604 .00000622 00000+0 21260-3 0 9994 2 10967 108.0117 305.3806 0001595 250.4563 109.6410 14.46063464494100 SL-14 R/B 1 11267U 79011B 25347.99540762 .00000812 00000+0 77883-4 0 9995 2 11267 82.5233 177.8534 0015797 349.2560 10.8320 14.91771352516001 SL-8 R/B 1 11574U 79089B 25348.01544968 .00000388 00000+0 12539-3 0 9991 2 11574 74.0691 249.6182 0014475 83.4407 276.8397 14.42284854423751 SL-14 R/B 1 11672U 80005B 25347.61661445 .00000800 00000+0 78625-4 0 9993 2 11672 82.5148 28.8678 0017360 90.8164 269.5044 14.90793049463662 SL-8 R/B 1 12139U 81003B 25347.99922772 .00016822 00000+0 44532-3 0 9995 2 12139 82.9305 9.0445 0279399 115.8841 247.1480 15.07087159301759 SL-3 R/B 1 12465U 81046B 25347.92923866 .00012438 00000+0 31274-3 0 9990 2 12465 81.2335 32.5153 0018760 320.1398 39.8464 15.39638908425220 SL-3 R/B 1 12904U 81103B 25347.97643147 .00007275 00000+0 33361-3 0 9990 2 12904 81.1591 313.9056 0011829 208.6890 151.3692 15.20253637960202 SL-3 R/B 1 13068U 82013B 25347.95907684 .00005703 00000+0 25332-3 0 9993 2 13068 81.1751 261.1822 0024058 106.9032 253.4839 15.21101564391312 SL-3 R/B 1 13154U 82039B 25347.96502402 .00003697 00000+0 22681-3 0 9991 2 13154 81.1716 314.6877 0029618 248.1675 111.6399 15.09535987368701 SL-3 R/B 1 13403U 82079B 25347.92873443 .00007567 00000+0 31180-3 0 9998 2 13403 81.1468 294.2593 0027080 95.2866 265.1458 15.23607490364638 SL-14 R/B 1 13553U 82092B 25347.75911428 .00000690 00000+0 74959-4 0 9998 2 13553 82.5683 221.7587 0019219 223.4259 206.2445 14.86557093316160 SL-3 R/B 1 13819U 83010B 25347.87413513 .00016349 00000+0 36200-3 0 9993 2 13819 81.1029 107.2335 0017146 347.1452 12.9351 15.43497902344692 SL-3 R/B 1 14208U 83075B 25347.95980611 .00011917 00000+0 33757-3 0 9994 2 14208 97.6107 344.4844 0022884 171.0573 189.1082 15.36168429316987 COSMOS 1536 1 14699U 84013A 25347.98934062 .00007002 00000+0 29984-3 0 9990 2 14699 82.5454 192.9251 0013613 220.7300 139.2919 15.22536276259577 SL-14 R/B 1 14820U 84027B 25347.96970679 .00000744 00000+0 82553-4 0 9991 2 14820 82.5413 325.4025 0016388 256.3360 103.6032 14.85876065234905 SL-8 R/B 1 15483U 85006B 25347.95579825 .00000320 00000+0 11502-3 0 9997 2 15483 74.0467 58.8978 0018750 350.8323 181.7471 14.37722005141704 SL-12 R/B(2) 1 15772U 85042D 25348.01555852 .00000074 00000+0 54603-4 0 9996 2 15772 71.1085 268.7247 0037587 259.6271 178.8191 14.21952534102211 SL-14 R/B 1 15945U 85069B 25347.84594856 .00000802 00000+0 87928-4 0 9999 2 15945 82.5268 105.6630 0020198 115.0682 245.2634 14.86326155160083 SL-16 R/B 1 16182U 85097B 25347.98001766 .00000331 00000+0 18978-3 0 9997 2 16182 71.0034 320.9917 0006743 9.0340 52.4940 14.16584899 75092 SL-14 R/B 1 16496U 86006B 25347.97876013 .00000889 00000+0 92105-4 0 9993 2 16496 82.5264 340.3851 0076262 195.6775 164.2081 14.86673857136470 COSMOS 1743 1 16719U 86034A 25347.94378107 .00032260 00000+0 52989-3 0 9993 2 16719 82.5344 163.3412 0004703 248.4518 111.6233 15.52232928166928 SL-14 R/B 1 16792U 86046B 25347.99438342 .00000738 00000+0 82302-4 0 9998 2 16792 82.4809 161.1291 0023886 148.2017 212.0647 14.85486269113683 SL-14 R/B 1 16882U 86055B 25348.00276885 .00000633 00000+0 70364-4 0 9992 2 16882 82.5202 207.1862 0017503 254.8599 220.9037 14.85532411106644 AJISAI (EGS) 1 16908U 86061A 25348.02026374 -.00000090 00000+0 50473-4 0 9993 2 16908 50.0113 356.7796 0011297 69.1215 325.7408 12.44514292457338 COSMOS 1812 1 17295U 87003A 25347.87359502 .00105455 00000+0 68000-3 0 9998 2 17295 82.4866 290.7886 0007217 85.3062 274.9027 15.75773538130838 SL-14 R/B 1 17567U 87024B 25347.92418630 .00000712 00000+0 78509-4 0 9993 2 17567 82.5273 173.3417 0018176 180.2423 179.8789 14.86025085 75396 COSMOS 1833 1 17589U 87027A 25347.85044204 .00000180 00000+0 12184-3 0 9999 2 17589 70.9138 146.4423 0022575 330.1794 29.8039 14.13021990998188 SL-16 R/B 1 17590U 87027B 25347.72006437 .00000081 00000+0 64039-4 0 9990 2 17590 71.0030 97.6524 0007364 258.2852 101.7446 14.17152286 3160 SL-14 R/B 1 17912U 87038B 25347.80771357 .00000624 00000+0 69573-4 0 9990 2 17912 82.5016 17.6950 0020875 88.7778 271.5830 14.85262451 66487 COSMOS 1844 1 17973U 87041A 25347.97631184 .00000007 00000+0 28789-4 0 9991 2 17973 70.8972 214.9637 0030051 155.1619 205.0957 14.14526158991465 SL-14 R/B 1 18153U 87055B 25347.73203880 .00000711 00000+0 79331-4 0 9990 2 18153 82.5000 70.0534 0019362 299.8354 60.0937 14.85522728 57174 COSMOS 1867 1 18187U 87060A 25347.93025039 .00000002 00000+0 38258-4 0 9999 2 18187 65.0089 186.8689 0013631 271.2456 88.7066 14.31486290 7664 SL-14 R/B 1 18749U 88001B 25347.92378809 .00000698 00000+0 78006-4 0 9990 2 18749 82.5133 276.0335 0018589 157.2908 202.9134 14.85425528 29299 COSMOS 1933 1 18958U 88020A 25348.00606456 .00004901 00000+0 24565-3 0 9996 2 18958 82.5128 335.6277 0005883 122.6604 237.5198 15.17120688 37236 SL-3 R/B 1 19046U 88032B 25347.91569840 .00005926 00000+0 28587-3 0 9998 2 19046 97.5080 326.6280 0026861 168.9056 191.2776 15.18758058 39087 SL-16 R/B 1 19120U 88039B 25348.01533282 -.00000088 00000+0 -18864-4 0 9995 2 19120 71.0148 249.7014 0019681 114.1440 246.1746 14.19596895946223 COSMOS 1953 1 19210U 88050A 25347.75289051 .00006890 00000+0 25851-3 0 9998 2 19210 82.5091 244.5647 0013726 68.3534 291.9165 15.26953575 24669 SL-8 R/B 1 19257U 88053B 25348.00497135 .00000358 00000+0 12458-3 0 9997 2 19257 74.0478 270.3877 0018985 114.0781 331.3704 14.38860173964273 COSMOS 1975 1 19573U 88093A 25347.69862761 .00009343 00000+0 35597-3 0 9999 2 19573 82.5202 203.8688 0012910 109.3693 250.8942 15.26491078 6284 SL-14 R/B 1 19574U 88093B 25347.86308032 .00000784 00000+0 87726-4 0 9997 2 19574 82.5305 122.6130 0019871 325.5733 150.3421 14.85550750988292 SL-16 R/B 1 19650U 88102B 25347.94179958 .00000084 00000+0 66732-4 0 9992 2 19650 70.9998 331.9136 0012933 149.8136 210.3735 14.16136524914751 INTERCOSMOS 24 1 20261U 89080A 25347.93598852 .00001228 00000+0 35407-3 0 9990 2 20261 82.6045 160.1751 1188863 131.7464 239.1650 12.59442816656005 SL-14 R/B 1 20262U 89080C 25347.78440202 .00000557 00000+0 16265-3 0 9994 2 20262 82.5927 228.3503 1230646 21.2016 343.5796 12.50414882649410 DELTA 1 R/B 1 20323U 89089B 25347.88138435 .00000490 00000+0 12982-3 0 9992 2 20323 97.0750 203.9380 0070037 34.7419 325.8324 14.50573386883299 ARIANE 40 R/B 1 20443U 90005H 25347.78164290 .00000448 00000+0 15627-3 0 9994 2 20443 98.3243 45.9301 0011300 102.9373 257.3078 14.39799693880442 DELTA 2 R/B(1) 1 20453U 90008B 25347.78457364 .00041369 00000+0 65970-3 0 9998 2 20453 35.6077 13.7866 0111354 188.1293 171.7635 15.45322658912791 COSMOS 2058 1 20465U 90010A 25347.88412813 .00006309 00000+0 38132-3 0 9990 2 20465 82.4665 131.9042 0008372 268.1902 91.8368 15.10484549929284 SL-14 R/B 1 20466U 90010B 25347.95956732 .00000648 00000+0 75759-4 0 9999 2 20466 82.5020 347.9014 0018795 218.8791 141.1073 14.83472668915776 SL-14 R/B 1 20511U 90018B 25347.96247920 .00000722 00000+0 87778-4 0 9998 2 20511 82.5211 303.2215 0016905 19.4834 340.7022 14.82048162909884 HST 1 20580U 90037B 25347.18396407 .00010978 00000+0 38148-3 0 9994 2 20580 28.4685 269.4662 0001790 244.6720 115.3690 15.28062026760063 SL-16 R/B 1 20625U 90046B 25347.80629418 -.00000112 00000+0 -33155-4 0 9999 2 20625 70.9993 118.2816 0011849 71.2329 289.0078 14.15001176836241 COSMOS 2084 1 20663U 90055A 25347.96332313 .00003756 00000+0 27455-3 0 9993 2 20663 62.7904 267.8237 0031546 174.8852 185.2577 15.05029662923416 SL-6 R/B(2) 1 20666U 90055D 25347.89830798 .00002716 00000+0 21464-3 0 9997 2 20666 62.7826 185.4792 0012833 309.7745 50.2223 15.03082483925296 SL-8 R/B 1 20775U 90078B 25347.94316610 .00022766 00000+0 70475-3 0 9994 2 20775 82.9048 328.2335 0371734 301.8582 54.6950 14.86003114796551 SL-8 R/B 1 21088U 91006B 25347.97546188 .00000073 00000+0 57977-4 0 9992 2 21088 82.9426 233.7938 0021196 276.1989 94.4917 13.77490111752279 OKEAN-3 1 21397U 91039A 25347.94616799 .00004686 00000+0 33562-3 0 9991 2 21397 82.5175 59.8795 0013040 262.0843 97.8903 15.04129616852149 COSMOS 2151 1 21422U 91042A 25347.95766095 .00002309 00000+0 18482-3 0 9994 2 21422 82.4958 166.3294 0012467 355.9367 4.1754 14.99691730850348 SL-14 R/B 1 21423U 91042B 25347.86248597 .00000643 00000+0 78387-4 0 9997 2 21423 82.4927 300.6700 0017552 158.1480 202.0487 14.81740160840365 ERS-1 1 21574U 91050A 25347.98818727 .00000477 00000+0 16735-3 0 9997 2 21574 98.7905 359.0742 0033028 96.4803 264.0146 14.39365853803400 ARIANE 40 R/B 1 21610U 91050F 25347.89607839 .00000478 00000+0 15593-3 0 9990 2 21610 98.2165 38.2848 0002706 357.4329 2.6847 14.42814446806621 INTERCOSMOS 25 1 21819U 91086A 25347.87378769 .00002093 00000+0 41631-3 0 9992 2 21819 82.6072 1.8907 1486550 301.9518 44.5356 12.11731283486294 SL-8 R/B 1 21876U 92008B 25347.98675744 .00000157 00000+0 14608-3 0 9998 2 21876 82.9266 331.5187 0035108 16.3641 37.3542 13.75959133697636 SL-8 R/B 1 21938U 92020B 25348.01555311 .00000130 00000+0 11873-3 0 9995 2 21938 82.9304 217.3703 0028977 174.5471 299.6183 13.75527469689354 USA 81 1 21949U 92023A 25347.94220931 .00000259 00000+0 88544-4 0 9990 2 21949 85.0080 180.8827 0001353 66.2554 293.8780 14.32327367 82513 COSMOS 2219 1 22219U 92076A 25347.99792984 .00000028 00000+0 39243-4 0 9992 2 22219 71.0577 197.2028 0019102 325.1718 34.8153 14.14062643706260 SL-16 R/B 1 22220U 92076B 25347.79807550 -.00000002 00000+0 22986-4 0 9997 2 22220 71.0005 9.3027 0014730 232.6775 300.0365 14.16840903709662 COSMOS 2221 1 22236U 92080A 25347.75441758 .00002396 00000+0 21220-3 0 9995 2 22236 82.5046 1.3543 0016074 118.5117 241.7726 14.95765759767940 SL-16 R/B 1 22285U 92093B 25347.94550328 .00000376 00000+0 21684-3 0 9998 2 22285 71.0201 184.2648 0002195 67.5386 292.5969 14.15430390701029 COSMOS 2228 1 22286U 92094A 25347.96053179 .00002816 00000+0 24356-3 0 9994 2 22286 82.5178 319.3664 0016612 226.8172 133.1663 14.96738655763237 SL-16 R/B 1 22566U 93016B 25347.83600417 -.00000014 00000+0 17183-4 0 9999 2 22566 71.0081 35.5015 0007909 95.3917 264.8109 14.15286871690028 COSMOS 2242 1 22626U 93024A 25347.97339344 .00002538 00000+0 22300-3 0 9996 2 22626 82.5194 348.6660 0015018 229.6949 130.2962 14.96114338767573 SL-16 R/B 1 22803U 93059B 25347.93201777 -.00000150 00000+0 -50482-4 0 9998 2 22803 70.9888 191.9724 0018071 333.8361 26.1848 14.17213515667383 ARIANE 40 R/B 1 22830U 93061H 25347.94510174 .00000361 00000+0 14833-3 0 9997 2 22830 98.5075 53.4531 0010943 172.5201 187.6148 14.32802262681827 COSMOS 2278 1 23087U 94023A 25347.73822519 -.00000168 00000+0 -62992-4 0 9994 2 23087 71.0540 354.9222 0008273 178.1240 181.9915 14.14350273632655 SL-16 R/B 1 23088U 94023B 25347.96527838 -.00000036 00000+0 59053-5 0 9994 2 23088 71.0006 250.9122 0001439 22.5831 337.5354 14.15003057633969 SL-16 R/B 1 23343U 94074B 25348.02172515 .00000691 00000+0 99550-4 0 9991 2 23343 97.7202 17.2753 0007619 132.2297 257.2182 14.79291408674580 SL-16 R/B 1 23405U 94077B 25347.98032881 .00000299 00000+0 17757-3 0 9990 2 23405 70.9812 172.8036 0004686 283.2063 76.8537 14.15550595604105 ARIANE 40+ R/B 1 23561U 95021B 25347.78854409 .00000454 00000+0 15909-3 0 9999 2 23561 98.4651 55.3647 0007448 47.2472 62.9529 14.39696480606882 SL-16 R/B 1 23705U 95058B 25347.77106627 -.00000008 00000+0 20481-4 0 9998 2 23705 71.0226 0.6391 0014980 254.1936 105.7536 14.15484108555691 SL-16 R/B 1 24298U 96051B 25347.76341803 .00000037 00000+0 46619-4 0 9998 2 24298 70.7596 357.1172 0019416 260.0938 99.7990 14.12396899509511 ORBVIEW 2 (SEASTAR) 1 24883U 97037A 25347.96089124 .00000440 00000+0 16930-3 0 9990 2 24883 98.8457 145.0661 0001605 337.2410 22.8703 14.35418312496174 SL-16 R/B 1 25400U 98043G 25347.85085277 .00000124 00000+0 70783-4 0 9993 2 25400 98.8125 295.6751 0008779 263.1791 96.8389 14.26025961426754 SL-16 R/B 1 25407U 98045B 25347.47104697 -.00000158 00000+0 -55909-4 0 9990 2 25407 71.0117 2.8891 0006892 176.3806 183.7369 14.16174963414896 ISS (ZARYA) 1 25544U 98067A 25347.89541822 .00011998 00000+0 22109-3 0 9994 2 25544 51.6304 136.7564 0003256 246.2023 113.8624 15.49578000543037 CZ-4B R/B 1 25732U 99025C 25348.01911257 .00000120 00000+0 78697-4 0 9995 2 25732 98.6767 29.2705 0036326 230.2499 191.0521 14.18243949376020 OKEAN-O 1 25860U 99039A 25347.87119313 .00001076 00000+0 14856-3 0 9995 2 25860 97.9604 43.5631 0000816 100.2932 259.8372 14.80163705421695 SL-16 R/B 1 25861U 99039B 25347.86518918 .00000903 00000+0 12169-3 0 9992 2 25861 98.0127 42.0165 0015008 170.9860 189.1625 14.81588593424154 DELTA 2 R/B 1 25876U 99041E 25347.98824128 .00001608 00000+0 29824-3 0 9996 2 25876 51.7611 283.4618 0504676 95.4468 270.4225 14.11405419350928 HELIOS 1B 1 25977U 99064A 25347.67809048 .00002593 00000+0 29397-3 0 9992 2 25977 98.1754 242.3716 0001642 42.6990 317.4353 14.87289455672479 TERRA 1 25994U 99068A 25347.96545414 .00000688 00000+0 14966-3 0 9990 2 25994 97.9749 39.6050 0003602 92.0675 321.0246 14.60903581382568 SL-16 R/B 1 26070U 00006B 25347.95863972 -.00000171 00000+0 -62705-4 0 9995 2 26070 71.0031 278.0945 0018555 306.8891 53.0531 14.15810417336420 TITAN 4B R/B 1 26474U 00047B 25348.00257580 .00004523 00000+0 29043-3 0 9997 2 26474 67.9897 281.3083 0038823 142.8724 217.5123 15.08794768379980 ENVISAT 1 27386U 02009A 25347.86918459 .00000214 00000+0 83294-4 0 9994 2 27386 98.3601 298.5810 0001126 83.2838 287.2106 14.38999831246834 IDEFIX & ARIANE 42P R/B 1 27422U 02021B 25347.84186912 .00000463 00000+0 19271-3 0 9997 2 27422 98.5787 282.5184 0012951 80.7139 279.5508 14.30951527231749 AQUA 1 27424U 02022A 25347.98596122 .00001564 00000+0 32311-3 0 9996 2 27424 98.4036 308.8853 0001160 114.9016 285.1621 14.61813843256216 CZ-4B R/B 1 27432U 02024C 25347.99008572 .00000072 00000+0 60360-4 0 9994 2 27432 98.8999 36.7574 0049150 266.2743 157.6901 14.14527977217122 MIDORI II (ADEOS-II) 1 27597U 02056A 25347.90555752 .00000393 00000+0 17244-3 0 9997 2 27597 98.7637 300.8679 0000239 157.1953 202.9239 14.29206726198048 H-2A R/B 1 27601U 02056E 25347.93450999 .00000513 00000+0 19416-3 0 9990 2 27601 98.3067 306.6436 0071346 57.6343 351.1564 14.33677364201820 CZ-4B R/B 1 28059U 03049C 25347.97108694 .00000541 00000+0 13567-3 0 9999 2 28059 98.6789 334.5815 0049046 132.3861 228.1502 14.54910689174132 CZ-2C R/B 1 28222U 04012C 25347.96170052 .00040862 00000+0 59130-3 0 9994 2 28222 97.7425 40.6838 0016475 265.6500 94.2871 15.55641522190915 SL-16 R/B 1 28353U 04021B 25347.89436129 -.00000231 00000+0 -95415-4 0 9996 2 28353 71.0015 52.5425 0005220 198.5208 161.5726 14.14580219110704 CZ-4B R/B 1 28415U 04035C 25348.00268079 .00009269 00000+0 34330-3 0 9997 2 28415 97.3614 18.3300 0031515 272.7746 86.9886 15.27399593166828 CZ-2C R/B 1 28480U 04046B 25348.01075378 .00000298 00000+0 12546-3 0 9998 2 28480 98.1990 263.3095 0140443 48.5724 312.7425 14.26941717 96285 ARIANE 5 R/B 1 28499U 04049H 25348.00016910 .00001524 00000+0 17518-3 0 9994 2 28499 98.2522 148.3266 0083303 268.8196 90.3473 14.85015651133075 CZ-2D R/B 1 28738U 05024B 25348.01043136 .00032466 00000+0 51531-3 0 9997 2 28738 97.3639 355.4904 0005307 1.7755 358.3516 15.53285533126456 ALOS (DAICHI) 1 28931U 06002A 25347.85298725 .00002017 00000+0 34860-3 0 9991 2 28931 98.1092 299.3326 0001180 116.4646 243.6681 14.69492728 60879 H-2A R/B 1 28932U 06002B 25347.90849898 .00011937 00000+0 62649-3 0 9998 2 28932 98.2312 122.7523 0054555 172.2817 187.9265 15.14604279 81449 RESURS-DK 1 1 29228U 06021A 25347.75646785 .00003632 00000+0 21608-3 0 9994 2 29228 69.9332 99.2108 0007132 258.4187 101.6178 15.12168810 74530 CZ-4B R/B 1 29507U 06046C 25347.62725311 .00005854 00000+0 30515-3 0 9995 2 29507 97.5738 27.7630 0033345 203.3131 156.6592 15.15884590 47001 CZ-2C R/B 1 31114U 07010B 25347.91640235 .00000223 00000+0 12133-3 0 9998 2 31114 98.3975 100.5080 0059038 182.5750 177.5132 14.20210585967545 COSMO-SKYMED 1 1 31598U 07023A 25347.99232095 .00004674 00000+0 42434-3 0 9998 2 31598 97.8834 173.3995 0001318 90.1083 270.0289 14.95776759 2097 COSMOS 2428 1 31792U 07029A 25347.80033702 .00000123 00000+0 91826-4 0 9999 2 31792 70.9367 23.6533 0003728 21.9618 338.1662 14.12890083951960 SL-16 R/B 1 31793U 07029B 25348.00750934 -.00000011 00000+0 19118-4 0 9997 2 31793 70.9755 352.4927 0002118 261.9557 118.9999 14.14814687953251 KORONAS-FOTON 1 33504U 09003A 25347.79325994 .00015844 00000+0 37924-3 0 9995 2 33504 82.4315 5.0145 0013317 105.0689 255.2032 15.41222073932504 CZ-2C R/B 1 37731U 11030B 25347.87678205 .00002016 00000+0 26199-3 0 9998 2 37731 97.8410 301.9583 0051314 269.8012 147.4063 14.80907595777399 H-2A R/B 1 38341U 12025E 25347.91185916 .00003872 00000+0 35855-3 0 9998 2 38341 98.4603 303.2326 0043688 232.2256 127.5001 14.94464957735409 SHIJIAN-16 (SJ-16) 1 39358U 13057A 25348.01045300 .00001792 00000+0 17914-3 0 9992 2 39358 74.9734 347.2511 0017673 316.8992 43.0811 14.91989540658724 SL-4 R/B 1 39679U 14021B 25347.85142292 .00013530 00000+0 32194-3 0 9999 2 39679 51.6089 35.1911 0101623 150.1127 210.5712 15.36707828643069 ALOS-2 1 39766U 14029A 25348.36623256 .00002302 00000+0 31508-3 0 9998 2 39766 97.9225 83.1892 0001379 102.2886 257.8480 14.79469978624252 YAOGAN-29 1 41038U 15069A 25348.03420566 .00001353 00000+0 17361-3 0 9997 2 41038 98.0224 11.2102 0000081 267.3119 92.8085 14.82886759543189 ASTRO-H (HITOMI) 1 41337U 16012A 25347.94665144 .00004097 00000+0 24441-3 0 9995 2 41337 30.9980 189.5923 0009589 191.2593 168.7832 15.09363315539263 HXMT (HUIYAN) 1 42758U 17034A 25347.91073023 .00005551 00000+0 29030-3 0 9999 2 42758 43.0127 133.1297 0031396 50.9783 309.3853 15.16258318469511 CZ-2C R/B 1 43521U 18054D 25347.93948678 .00109390 00000+0 71330-3 0 9996 2 43521 35.1319 172.7611 0015257 156.9765 203.1654 15.74396564415240 SAOCOM 1A 1 43641U 18076A 25348.02210618 .00001322 00000+0 17252-3 0 9999 2 43641 97.8849 172.4254 0001494 81.0337 279.1045 14.82162357388679 H-2A R/B 1 43682U 18084L 25347.99419358 .00019187 00000+0 51857-3 0 9997 2 43682 98.8777 182.3329 0027248 322.1472 37.7852 15.37430151392593 SAOCOM 1B 1 46265U 20059A 25347.98584297 .00000496 00000+0 68844-4 0 9994 2 46265 97.8844 171.4901 0001256 83.2858 276.8498 14.82161739286053 CSS (TIANHE) 1 48274U 21035A 25347.80355812 .00025274 00000+0 31565-3 0 9991 2 48274 41.4685 10.2494 0008089 39.7422 320.4007 15.59230309264192 COSMOS 2550 1 48865U 21056A 25346.33480374 -.00000001 00000+0 57847-5 0 9994 2 48865 67.1456 305.1584 0008395 269.9074 90.1118 15.33834191250061 CZ-2C R/B 1 52794U 22058K 25347.83961891 .00028024 00000+0 50149-3 0 9997 2 52794 50.1909 37.9395 0045278 202.9751 156.9193 15.48577212196801 CZ-2C R/B 1 54039U 22132E 25347.95804434 .00035217 00000+0 52092-3 0 9997 2 54039 97.2945 344.1799 0022938 53.2769 307.0587 15.54915643177022 GSLV R/B 1 54149U 22138AN 25347.85903460 .00004076 00000+0 35773-3 0 9999 2 54149 87.3830 195.0994 0024142 101.8051 258.5890 14.96139854171095 XRISM 1 57800U 23137A 25347.69335788 .00005673 00000+0 33153-3 0 9994 2 57800 31.0010 119.3858 0007693 255.1038 104.8748 15.10352051124777 ACS3 1 59588U 24077B 25347.90942339 .00032116 00000+0 27396-1 0 9995 2 59588 97.2661 303.2547 0077298 335.5702 24.1804 13.85569397 82308 SZ-21 MODULE 1 66515U 25246C 25347.24231733 .00039667 00000+0 43386-3 0 9995 2 66515 41.4775 12.9802 0006286 263.0797 96.9328 15.62521016 4528